When you browse on this site, cookies collect data to enhance your experience and personalize the content and advertising you see.
Visit our Privacy Policy to learn more. By continuing to use the site, you agree to this use of cookies and data.
  • In Hungary
  • List of Countries
  • For 7 days
  • Water Temperature
  • Satellite Maps
  • Weather Map
  • News
  • Weather Widgets
  • user-avatar
    Login

    Hourly Weather Kirchberg

    Today, 18 February, Monday

    Time Temperature Precipitation Wind Pressure Humidity
    00:00 -2°C° 0 mm 2 mps 672 mmHg 51%
    01:00 -2°C° 0 mm 2 mps 672 mmHg 50%
    02:00 -2°C° 0 mm 2 mps 671 mmHg 50%
    03:00 -2°C° 0 mm 2 mps 671 mmHg 49%
    04:00 -2°C° 0 mm 2 mps 671 mmHg 49%
    05:00 -2°C° 0 mm 2 mps 671 mmHg 50%
    06:00 -2°C° 0 mm 2 mps 671 mmHg 50%
    07:00 -3°C° 0 mm 2 mps 671 mmHg 50%
    08:00 -1°C° 0 mm 2 mps 671 mmHg 57%
    09:00 +3°C° 0 mm 1 mps 671 mmHg 64%
    10:00 +5°C° 0 mm 1 mps 671 mmHg 71%
    11:00 +6°C° 0 mm 1 mps 671 mmHg 75%
    12:00 +6°C° 0 mm 0 mps 671 mmHg 79%
    13:00 +7°C° 0 mm 0 mps 670 mmHg 82%
    14:00 +6°C° 0 mm 0 mps 670 mmHg 85%
    15:00 +6°C° 0 mm 0 mps 669 mmHg 87%
    16:00 +5°C° 0 mm 0 mps 669 mmHg 89%
    17:00 +5°C° 0 mm 1 mps 669 mmHg 85%
    18:00 +3°C° 0 mm 1 mps 669 mmHg 80%
    19:00 +1°C° 0 mm 2 mps 669 mmHg 76%
    20:00 -1°C° 0 mm 2 mps 669 mmHg 73%
    21:00 -1°C° 0 mm 2 mps 669 mmHg 70%
    22:00 -2°C° 0 mm 2 mps 669 mmHg 66%
    23:00 -2°C° 0 mm 2 mps 669 mmHg 65%

    Tomorrow, 19 February, Tuesday

    Time Temperature Precipitation Wind Pressure Humidity
    00:00 -2°C° 0 mm 2 mps 669 mmHg 63%
    01:00 -2°C° 0 mm 2 mps 669 mmHg 61%
    02:00 -2°C° 0 mm 2 mps 669 mmHg 61%
    03:00 -2°C° 0 mm 2 mps 668 mmHg 61%
    04:00 -2°C° 0 mm 2 mps 668 mmHg 61%
    05:00 -2°C° 0 mm 2 mps 668 mmHg 62%
    06:00 -2°C° 0 mm 2 mps 668 mmHg 64%
    07:00 -2°C° 0 mm 2 mps 669 mmHg 65%
    08:00 +1°C° 0 mm 1 mps 669 mmHg 70%
    09:00 +3°C° 0 mm 1 mps 669 mmHg 75%
    10:00 +5°C° 0 mm 1 mps 669 mmHg 80%
    11:00 +5°C° 0 mm 1 mps 669 mmHg 79%
    12:00 +6°C° 0 mm 1 mps 669 mmHg 78%
    13:00 +7°C° 0 mm 1 mps 669 mmHg 77%
    14:00 +6°C° 0 mm 0 mps 669 mmHg 80%
    15:00 +5°C° 0 mm 0 mps 669 mmHg 83%
    16:00 +5°C° 0 mm 0 mps 668 mmHg 85%
    17:00 +4°C° 0 mm 1 mps 669 mmHg 85%
    18:00 +3°C° 0 mm 1 mps 669 mmHg 85%
    19:00 +1°C° 0 mm 1 mps 669 mmHg 84%
    20:00 +1°C° 0 mm 1 mps 669 mmHg 83%
    21:00 +1°C° 0 mm 1 mps 670 mmHg 82%
    22:00 0°C° 0 mm 1 mps 670 mmHg 81%
    23:00 0°C° 0.1 mm 1 mps 670 mmHg 82%

    Day after tomorrow, 20 February, Wednesday

    Time Temperature Precipitation Wind Pressure Humidity
    00:00 0°C° 0.1 mm 1 mps 670 mmHg 84%
    01:00 0°C° 0.1 mm 1 mps 670 mmHg 85%
    02:00 0°C° 0 mm 1 mps 670 mmHg 85%
    03:00 0°C° 0 mm 1 mps 670 mmHg 86%
    04:00 0°C° 0 mm 1 mps 670 mmHg 86%
    05:00 -1°C° 0 mm 1 mps 670 mmHg 85%
    06:00 -1°C° 0 mm 1 mps 670 mmHg 85%
    07:00 -1°C° 0 mm 1 mps 670 mmHg 85%
    08:00 +1°C° 0 mm 1 mps 671 mmHg 84%
    09:00 +1°C° 0 mm 0 mps 671 mmHg 83%
    10:00 +3°C° 0 mm 0 mps 672 mmHg 82%
    11:00 +4°C° 0 mm 0 mps 672 mmHg 81%
    12:00 +5°C° 0 mm 0 mps 672 mmHg 80%
    13:00 +6°C° 0 mm 0 mps 672 mmHg 79%
    14:00 +5°C° 0 mm 0 mps 672 mmHg 81%
    15:00 +5°C° 0 mm 0 mps 671 mmHg 83%
    16:00 +5°C° 0 mm 0 mps 671 mmHg 85%
    17:00 +3°C° 0 mm 0 mps 671 mmHg 86%
    18:00 +2°C° 0 mm 0 mps 672 mmHg 88%
    19:00 0°C° 0 mm 0 mps 672 mmHg 89%
    20:00 +1°C° 0 mm 1 mps 672 mmHg 88%
    21:00 +1°C° 0 mm 1 mps 672 mmHg 87%
    22:00 +1°C° 0 mm 1 mps 673 mmHg 86%
    23:00 +1°C° 0 mm 1 mps 673 mmHg 83%

    21 February, Thursday

    Time Temperature Precipitation Wind Pressure Humidity
    00:00 0°C° 0 mm 1 mps 673 mmHg 80%
    01:00 0°C° 0 mm 1 mps 673 mmHg 78%
    02:00 0°C° 0 mm 1 mps 673 mmHg 76%
    03:00 0°C° 0 mm 1 mps 673 mmHg 75%
    04:00 0°C° 0 mm 1 mps 673 mmHg 74%
    05:00 0°C° 0 mm 1 mps 673 mmHg 74%
    06:00 +1°C° 0 mm 1 mps 674 mmHg 74%
    07:00 +1°C° 0 mm 1 mps 674 mmHg 74%
    08:00 +2°C° 0 mm 1 mps 674 mmHg 74%
    09:00 +3°C° 0 mm 1 mps 674 mmHg 75%
    10:00 +5°C° 0 mm 1 mps 675 mmHg 76%
    11:00 +4°C° 0 mm 0 mps 675 mmHg 75%
    12:00 +5°C° 0 mm 0 mps 674 mmHg 75%
    13:00 +5°C° 0 mm 0 mps 674 mmHg 74%
    14:00 +5°C° 0 mm 0 mps 674 mmHg 77%
    15:00 +5°C° 0 mm 0 mps 674 mmHg 80%
    16:00 +4°C° 0 mm 0 mps 674 mmHg 83%
    17:00 +5°C° 0 mm 1 mps 674 mmHg 82%
    18:00 +4°C° 0 mm 1 mps 674 mmHg 82%
    19:00 +3°C° 0 mm 1 mps 674 mmHg 81%
    20:00 +3°C° 0 mm 1 mps 675 mmHg 81%
    21:00 +3°C° 0 mm 1 mps 675 mmHg 81%
    22:00 +3°C° 0 mm 1 mps 675 mmHg 81%
    23:00 +3°C° 0.9 mm 1 mps 675 mmHg 84%

    22 February, Friday

    Time Temperature Precipitation Wind Pressure Humidity
    00:00 +2°C° 0.9 mm 1 mps 675 mmHg 86%
    01:00 +2°C° 0.9 mm 1 mps 675 mmHg 89%
    02:00 +2°C° 0.9 mm 1 mps 676 mmHg 90%
    03:00 +2°C° 0.9 mm 1 mps 676 mmHg 92%
    04:00 +2°C° 0.9 mm 1 mps 676 mmHg 94%
    05:00 +2°C° 0.1 mm 1 mps 676 mmHg 93%
    06:00 +2°C° 0.1 mm 1 mps 677 mmHg 93%
    07:00 +2°C° 0.1 mm 1 mps 677 mmHg 93%
    08:00 +3°C° 0 mm 1 mps 678 mmHg 91%
    09:00 +3°C° 0 mm 0 mps 678 mmHg 89%
    10:00 +3°C° 0 mm 0 mps 678 mmHg 87%
    11:00 +4°C° 0 mm 0 mps 678 mmHg 86%
    12:00 +5°C° 0 mm 0 mps 678 mmHg 85%
    13:00 +5°C° 0 mm 0 mps 678 mmHg 83%
    14:00 +5°C° 0 mm 0 mps 678 mmHg 85%
    15:00 +6°C° 0 mm 1 mps 678 mmHg 86%
    16:00 +6°C° 0 mm 1 mps 678 mmHg 88%
    17:00 +5°C° 0 mm 1 mps 679 mmHg 89%
    18:00 +3°C° 0 mm 0 mps 679 mmHg 91%
    19:00 +2°C° 0 mm 0 mps 679 mmHg 92%
    20:00 +2°C° 0 mm 0 mps 679 mmHg 91%
    21:00 +2°C° 0 mm 1 mps 680 mmHg 91%
    22:00 +1°C° 0 mm 1 mps 680 mmHg 90%
    23:00 +1°C° 0 mm 1 mps 680 mmHg 88%

    23 February, Saturday

    Time Temperature Precipitation Wind Pressure Humidity
    00:00 +1°C° 0 mm 1 mps 679 mmHg 86%
    01:00 +1°C° 0 mm 1 mps 679 mmHg 84%
    02:00 0°C° 0 mm 1 mps 679 mmHg 82%
    03:00 0°C° 0 mm 1 mps 679 mmHg 80%
    04:00 0°C° 0 mm 1 mps 679 mmHg 79%
    05:00 0°C° 0 mm 1 mps 679 mmHg 77%
    06:00 0°C° 0 mm 1 mps 680 mmHg 75%
    07:00 +1°C° 0 mm 1 mps 680 mmHg 73%
    08:00 +2°C° 0 mm 1 mps 680 mmHg 72%
    09:00 +3°C° 0 mm 0 mps 681 mmHg 71%
    10:00 +5°C° 0 mm 0 mps 681 mmHg 71%
    11:00 +6°C° 0 mm 0 mps 681 mmHg 69%
    12:00 +8°C° 0 mm 1 mps 681 mmHg 68%
    13:00 +9°C° 0 mm 1 mps 681 mmHg 67%
    14:00 +9°C° 0 mm 1 mps 681 mmHg 72%
    15:00 +8°C° 0 mm 1 mps 680 mmHg 76%
    16:00 +8°C° 0 mm 1 mps 680 mmHg 80%
    17:00 +7°C° 0 mm 1 mps 680 mmHg 81%
    18:00 +5°C° 0 mm 1 mps 680 mmHg 82%
    19:00 +4°C° 0 mm 1 mps 680 mmHg 83%
    20:00 +4°C° 0 mm 1 mps 680 mmHg 81%
    21:00 +4°C° 0 mm 1 mps 680 mmHg 78%
    22:00 +4°C° 0 mm 1 mps 680 mmHg 75%
    23:00 +4°C° 0 mm 1 mps 680 mmHg 74%
    Show more